Home   Weather   Township of Greenwich   Past weeks
Flag for USA

Past Weather in Township of Greenwich, New Jersey, USA — Yesterday and Last 2 Weeks

Now
80 °F

Sunny.


Feels Like: 83 °F
Forecast: 81 / 67 °F
Wind: 8 mph from Southeast

Location: Dover Air Force Base
Current Time: Sep 28, 2020 at 6:16:55 pm
Latest Report: Sep 28, 2020 at 4:56 pm
Visibility: 10 mi
Pressure29.89 "Hg
Humidity: 66%
Dew Point: 68 °F
Location of Township of GreenwichLocation

Past Weather in Township of Greenwich — Graph

°F

Township of Greenwich Temperature Yesterday

Maximum temperature yesterday: 77 °F (at 2:36 pm)
Minimum temperature yesterday: 68 °F (at 4:56 am)
Average temperature yesterday: 71 °F

High & Low Weather Summary for the Past Weeks

 TemperatureHumidityPressure
High82 °F (Sep 28, 1:56 pm)100% (Sep 17, 5:36 pm)30.55 "Hg (Sep 17, 5:36 pm)
Low45 °F (Sep 20, 6:56 am)31% (Sep 22, 4:56 pm)29.87 "Hg (Sep 18, 5:22 am)
Average65 °F78%30.11 "Hg
* Reported Sep 13 4:56 pm — Sep 28 4:56 pm, Township of Greenwich. Weather by CustomWeather, © 2020

Note: Actual official high and low records may vary slightly from our data, if they occured in-between our weather recording intervals... More about our weather records

Township of Greenwich Weather History for the Previous 24 Hours

Scroll right to see more
 ConditionsComfort  
Time TempWeatherWind HumidityBarometerVisibility
4:56 pm
Mon, Sep 28
80 °FSunny.8 mph66%29.89 "Hg10 mi
3:56 pm82 °FPassing clouds.6 mph55%29.89 "Hg10 mi
2:56 pm82 °FPartly sunny.10 mph57%29.90 "Hg10 mi
1:56 pm82 °FSunny.9 mph58%29.91 "Hg10 mi
12:56 pm81 °FSunny.12 mph63%29.92 "Hg10 mi
11:56 am78 °FSunny.14 mph68%29.93 "Hg10 mi
10:56 am75 °FSunny.12 mph78%29.94 "Hg10 mi
9:56 am70 °FPassing clouds.8 mph97%29.93 "Hg10 mi
8:56 am68 °FPassing clouds.8 mph100%29.92 "Hg10 mi
7:56 am67 °FSunny.5 mph100%29.91 "Hg7 mi
6:56 am67 °FScattered clouds.6 mph100%29.90 "Hg7 mi
5:56 am67 °FPassing clouds.6 mph100%29.91 "Hg7 mi
4:56 am68 °FOvercast.8 mph100%29.90 "Hg8 mi
4:08 am68 °FLow clouds.6 mph100%29.90 "Hg10 mi
3:56 am68 °FOvercast.7 mph100%29.90 "Hg10 mi
3:36 am68 °FMostly cloudy.7 mph100%29.90 "Hg10 mi
2:56 am69 °FLow clouds.9 mph100%29.91 "Hg10 mi
2:16 am68 °FPassing clouds.7 mph100%29.91 "Hg10 mi
1:56 am69 °FPassing clouds.7 mph100%29.91 "Hg10 mi
1:06 am70 °FLow clouds.8 mph100%29.91 "Hg10 mi
12:56 am70 °FLow clouds.8 mph100%29.92 "Hg10 mi
11:56 pm
Sun, Sep 27
71 °FLow clouds.8 mph100%29.92 "Hg10 mi
11:37 pm70 °FMostly cloudy.8 mph100%29.93 "Hg9 mi
11:15 pm70 °FLight rain. Low clouds.7 mph100%29.92 "Hg10 mi
10:56 pm71 °FLow clouds.7 mph100%29.92 "Hg10 mi
9:56 pm71 °FLow clouds.3 mph100%29.92 "Hg10 mi
9:39 pm70 °FLow clouds.5 mph100%29.92 "Hg10 mi
9:09 pm70 °FPassing clouds.5 mph100%29.92 "Hg10 mi
8:56 pm70 °FPassing clouds.3 mph97%29.92 "Hg10 mi
7:56 pm71 °FMostly cloudy.No wind93%29.91 "Hg10 mi
7:26 pm72 °FPassing clouds.3 mph88%29.90 "Hg10 mi
6:56 pm71 °FPassing clouds.No wind92%29.90 "Hg10 mi
Weather by CustomWeather, © 2020

See weather overview